Regional Weather Roundup
Issued by NWS

Home | Current Version | Previous Version | Text Only | Print | Product List | Glossary On
Versions: 1 2 3 4 5 6 7 8 9 10 11 12 13 14 15 16 17 18 19 20 21 22 23 24 25 26 27 28 29 30 31 32 33 34 35 36 37 38 39 40 41 42 43 44 45 46 47 48 49 50
000
ASUS42 KKEY 010410
RWRKEY

FLORIDA REGIONAL WEATHER ROUNDUP FOR THE FLORIDA KEYS
NATIONAL WEATHER SERVICE KEY WEST FLORIDA
1200 AM EDT SAT AUG 01 2015

...SOUTH FLORIDA AND THE KEYS...

CITY           SKY/WX    TMP DP  RH WIND       PRES   REMARKS
FORT MYERS     CLOUDY    75  73  93 E8        30.02S
SW REGIONAL AP CLOUDY    76  73  91 E6        30.03S
NAPLES         CLOUDY    83  78  85 SE8       30.03R HX  93
MIAMI          CLOUDY    77  69  76 N5        30.05R
WEST KENDALL   CLOUDY    74  72  93 S6        30.05R
HOMESTEAD      CLOUDY    75  70  85 W8        30.05R
MARATHON       PTCLDY    84  76  76 VRB7      30.04S HX  93
BOCA CHICA NAS PTCLDY    84  76  76 E9        30.04S HX  93
KEY WEST INTL  PTCLDY    86  76  71 SE8       30.04S HX  96

...INTERNATIONAL WEATHER...

CITY           SKY/WX    TMP DP  RH WIND       PRES   REMARKS
NASSAU BAHAMAS MOCLDY    84  75  74 SE5       30.10R HX  92
CANCUN MEXICO  PTCLDY    82  77  83 E3        30.00F HX  91
COZUMEL MEXICO PTCLDY    75  73  94 CALM      30.03R

ADJACENT COASTAL WATERS...

STATION/POSITION TIME  SKY/WX   TEMP    WIND        PRES    WAVE
                                AIR SEA DIR/SP/G            HT/PER
                 (UTC)          (F)     (DEG/KT/KT) (MB)    (FT/S)
PULASKI SHOAL LI 0300            85     140/  2/  2 1017.1R
SAND KEY         0350            85     130/  9/ 10 1017.2R
SOMBRERO KEY     0300            84      90/ 13/ 14 1017.8R
LONG KEY         0300            85 90   90/ 10/ 12 1017.9S
MOLASSES REEF    0300            83 87   30/  4/  5 1017.5S
FOWEY ROCKS      NOT AVBL

$$


USA.gov is the U.S. government's official web portal to all federal, state and local government web resources and services.